| time (UTC) | temp F | wind direction | speed MPH | gust MPH | rain 1hr in | rain 24hr in | rain mn in | humidity % | barometer mb |
| 20260507124543 | 32 | 0 | 0.0 | 0.0 | 0.00 | 0.40 | 0.00 | 92 | 1015.2 |
| 20260507124045 | 32 | 115 | 0.0 | 1.0 | 0.00 | 0.40 | 0.00 | 92 | 1015.1 |
| 20260507123543 | 32 | 116 | 0.0 | 1.0 | 0.00 | 0.40 | 0.00 | 92 | 1015.1 |
| 20260507123044 | 31 | 0 | 0.0 | 1.0 | 0.00 | 0.40 | 0.00 | 92 | 1015.1 |
| 20260507122545 | 31 | 0 | 0.0 | 2.0 | 0.00 | 0.40 | 0.00 | 91 | 1015.2 |
| 20260507122045 | 31 | 84 | 0.0 | 2.0 | 0.00 | 0.40 | 0.00 | 91 | 1015.0 |
| 20260507121544 | 31 | 83 | 0.0 | 2.0 | 0.00 | 0.40 | 0.00 | 91 | 1015.0 |
| 20260507121045 | 31 | 80 | 1.0 | 2.0 | 0.00 | 0.40 | 0.00 | 91 | 1015.1 |
| 20260507120542 | 30 | 63 | 1.0 | 2.0 | 0.00 | 0.40 | 0.00 | 91 | 1015.1 |
| 20260507120042 | 30 | 0 | 0.0 | 2.0 | 0.00 | 0.40 | 0.00 | 91 | 1015.0 |
| 20260507115313 | 30 | 0 | 0.0 | 2.0 | 0.00 | 0.40 | 0.00 | 91 | 1014.9 |
| 20260507114541 | 30 | 0 | 0.0 | 0.0 | 0.00 | 0.41 | 0.00 | 91 | 1015.0 |
| 20260507114042 | 30 | 0 | 0.0 | 0.0 | 0.00 | 0.41 | 0.00 | 90 | 1015.1 |
| 20260507113542 | 30 | 0 | 0.0 | 0.0 | 0.00 | 0.41 | 0.00 | 90 | 1015.1 |
| 20260507113312 | 30 | 0 | 0.0 | 0.0 | 0.00 | 0.41 | 0.00 | 90 | 1015.1 |
| 20260507112541 | 30 | 0 | 0.0 | 0.0 | 0.00 | 0.41 | 0.00 | 90 | 1015.1 |
| 20260507112041 | 30 | 0 | 0.0 | 0.0 | 0.00 | 0.41 | 0.00 | 90 | 1015.0 |
| 20260507111541 | 30 | 0 | 0.0 | 0.0 | 0.00 | 0.41 | 0.00 | 90 | 1015.2 |
| 20260507111039 | 30 | 0 | 0.0 | 0.0 | 0.00 | 0.41 | 0.00 | 90 | 1015.0 |
| 20260507110540 | 30 | 0 | 0.0 | 0.0 | 0.00 | 0.41 | 0.00 | 90 | 1015.0 |
| 20260507110040 | 30 | 0 | 0.0 | 0.0 | 0.00 | 0.41 | 0.00 | 90 | 1015.0 |
| 20260507105539 | 30 | 0 | 0.0 | 1.0 | 0.00 | 0.41 | 0.00 | 90 | 1015.1 |
| 20260507105040 | 30 | 0 | 0.0 | 1.0 | 0.00 | 0.41 | 0.00 | 90 | 1014.9 |
| 20260507104539 | 30 | 0 | 0.0 | 2.0 | 0.00 | 0.41 | 0.00 | 90 | 1015.0 |
| 20260507104039 | 30 | 0 | 0.0 | 2.0 | 0.00 | 0.41 | 0.00 | 90 | 1015.0 |
| 20260507103540 | 30 | 0 | 0.0 | 1.0 | 0.00 | 0.41 | 0.00 | 90 | 1014.9 |
| 20260507103041 | 30 | 0 | 0.0 | 1.0 | 0.00 | 0.41 | 0.00 | 90 | 1014.9 |
| 20260507102540 | 30 | 0 | 0.0 | 1.0 | 0.00 | 0.41 | 0.00 | 90 | 1014.9 |
| 20260507102040 | 30 | 0 | 0.0 | 1.0 | 0.00 | 0.41 | 0.00 | 90 | 1014.9 |
| 20260507101540 | 30 | 0 | 0.0 | 1.0 | 0.00 | 0.41 | 0.00 | 90 | 1014.9 |
| 20260507101040 | 30 | 0 | 0.0 | 0.0 | 0.00 | 0.41 | 0.00 | 90 | 1015.1 |
| 20260507100544 | 30 | 0 | 0.0 | 2.0 | 0.00 | 0.42 | 0.00 | 90 | 1015.3 |
| 20260507100539 | 30 | 0 | 0.0 | 2.0 | 0.00 | 0.42 | 0.00 | 90 | 1015.2 |
| 20260507095540 | 30 | 0 | 0.0 | 2.0 | 0.00 | 0.42 | 0.00 | 89 | 1015.2 |
| 20260507095041 | 30 | 0 | 0.0 | 2.0 | 0.00 | 0.42 | 0.00 | 89 | 1015.2 |
| 20260507094541 | 30 | 241 | 0.0 | 0.0 | 0.00 | 0.42 | 0.00 | 89 | 1015.4 |
| 20260507094039 | 31 | 241 | 0.0 | 0.0 | 0.00 | 0.42 | 0.00 | 89 | 1015.2 |
| 20260507093540 | 31 | 241 | 0.0 | 0.0 | 0.00 | 0.42 | 0.00 | 89 | 1015.3 |
| 20260507093040 | 31 | 241 | 0.0 | 0.0 | 0.00 | 0.42 | 0.00 | 89 | 1015.4 |
| 20260507092540 | 31 | 241 | 0.0 | 0.0 | 0.00 | 0.42 | 0.00 | 89 | 1015.3 |
| 20260507092311 | 31 | 241 | 0.0 | 0.0 | 0.00 | 0.42 | 0.00 | 89 | 1015.4 |
| 20260507091540 | 31 | 241 | 0.0 | 1.0 | 0.00 | 0.42 | 0.00 | 89 | 1015.3 |
| 20260507091040 | 31 | 241 | 0.0 | 1.0 | 0.00 | 0.42 | 0.00 | 88 | 1015.3 |
| 20260507090541 | 31 | 240 | 0.0 | 0.0 | 0.00 | 0.42 | 0.00 | 88 | 1015.3 |
| 20260507090040 | 31 | 240 | 0.0 | 0.0 | 0.00 | 0.42 | 0.00 | 88 | 1015.4 |
| 20260507085539 | 31 | 240 | 0.0 | 0.0 | 0.00 | 0.42 | 0.00 | 88 | 1015.6 |
| 20260507085038 | 31 | 240 | 0.0 | 0.0 | 0.00 | 0.42 | 0.00 | 88 | 1015.6 |
| 20260507084536 | 31 | 240 | 0.0 | 0.0 | 0.00 | 0.42 | 0.00 | 87 | 1015.6 |
| 20260507084033 | 31 | 240 | 0.0 | 0.0 | 0.00 | 0.42 | 0.00 | 87 | 1015.7 |
| 20260507083533 | 31 | 240 | 0.0 | 0.0 | 0.00 | 0.42 | 0.00 | 87 | 1015.6 |
| 20260507083032 | 31 | 240 | 0.0 | 0.0 | 0.00 | 0.42 | 0.00 | 86 | 1015.6 |
| 20260507082530 | 32 | 240 | 0.0 | 0.0 | 0.00 | 0.42 | 0.00 | 86 | 1015.6 |
| 20260507082027 | 32 | 240 | 0.0 | 0.0 | 0.00 | 0.43 | 0.00 | 86 | 1015.7 |
| 20260507081526 | 32 | 240 | 0.0 | 0.0 | 0.00 | 0.43 | 0.00 | 85 | 1015.7 |
| 20260507081026 | 32 | 240 | 0.0 | 0.0 | 0.00 | 0.43 | 0.00 | 85 | 1015.8 |
| 20260507080525 | 33 | 240 | 0.0 | 0.0 | 0.00 | 0.43 | 0.00 | 84 | 1015.9 |
| 20260507080023 | 33 | 240 | 0.0 | 0.0 | 0.00 | 0.43 | 0.00 | 84 | 1015.9 |
| 20260507075523 | 33 | 240 | 0.0 | 0.0 | 0.00 | 0.43 | 0.00 | 84 | 1015.9 |
| 20260507075023 | 33 | 240 | 0.0 | 0.0 | 0.00 | 0.43 | 0.00 | 84 | 1016.0 |
| 20260507074521 | 33 | 240 | 0.0 | 1.0 | 0.00 | 0.43 | 0.00 | 84 | 1016.0 |
| 20260507074023 | 34 | 240 | 0.0 | 1.0 | 0.00 | 0.43 | 0.00 | 83 | 1016.1 |
| 20260507073751 | 34 | 240 | 0.0 | 1.0 | 0.00 | 0.43 | 0.00 | 83 | 1016.1 |
| 20260507073019 | 34 | 240 | 0.0 | 1.0 | 0.00 | 0.43 | 0.00 | 83 | 1016.1 |
| 20260507072518 | 34 | 240 | 0.0 | 1.0 | 0.00 | 0.43 | 0.00 | 84 | 1016.0 |
| 20260507072018 | 34 | 241 | 0.0 | 1.0 | 0.00 | 0.43 | 0.00 | 85 | 1016.2 |
| 20260507071519 | 34 | 241 | 0.0 | 1.0 | 0.00 | 0.43 | 0.00 | 85 | 1016.1 |
| 20260507071019 | 34 | 241 | 0.0 | 2.0 | 0.00 | 0.43 | 0.00 | 85 | 1016.2 |
| 20260507070518 | 34 | 241 | 0.0 | 2.0 | 0.00 | 0.43 | 0.00 | 85 | 1016.4 |
| 20260507070024 | 34 | 241 | 0.0 | 2.0 | 0.00 | 0.43 | 0.00 | 85 | 1016.4 |
| 20260507070018 | 34 | 241 | 0.0 | 1.0 | 0.00 | 0.43 | 0.00 | 85 | 1016.4 |
| 20260507065014 | 34 | 241 | 0.0 | 2.0 | 0.00 | 0.44 | 0.00 | 85 | 1016.5 |
| 20260507064513 | 34 | 241 | 0.0 | 2.0 | 0.00 | 0.44 | 0.00 | 85 | 1016.5 |
| 20260507064013 | 34 | 240 | 0.0 | 2.0 | 0.00 | 0.44 | 0.00 | 85 | 1016.6 |
| 20260507063745 | 34 | 0 | 0.0 | 0.0 | 0.00 | 0.44 | 0.00 | 85 | 1016.5 |
| 20260507063244 | 34 | 0 | 0.0 | 0.0 | 0.00 | 0.44 | 0.00 | 84 | 1016.5 |
| 20260507062746 | 34 | 0 | 0.0 | 0.0 | 0.00 | 0.44 | 0.00 | 83 | 1016.6 |
| 20260507062010 | 35 | 0 | 0.0 | 0.0 | 0.00 | 0.44 | 0.00 | 83 | 1016.8 |
| 20260507061509 | 35 | 0 | 0.0 | 0.0 | 0.00 | 0.44 | 0.00 | 83 | 1016.8 |
| 20260507061009 | 35 | 0 | 0.0 | 1.0 | 0.00 | 0.44 | 0.00 | 83 | 1016.8 |
| 20260507060745 | 35 | 0 | 0.0 | 1.0 | 0.00 | 0.44 | 0.00 | 83 | 1016.8 |
| 20260507060509 | 35 | 0 | 0.0 | 1.0 | 0.00 | 0.44 | 0.00 | 83 | 1016.9 |
| 20260507055507 | 35 | 0 | 0.0 | 1.0 | 0.00 | 0.44 | 0.44 | 83 | 1016.8 |
| 20260507055236 | 35 | 0 | 0.0 | 2.0 | 0.00 | 0.44 | 0.44 | 83 | 1016.8 |
| 20260507054505 | 35 | 0 | 0.0 | 2.0 | 0.00 | 0.44 | 0.44 | 82 | 1016.9 |
| 20260507054239 | 35 | 0 | 0.0 | 2.0 | 0.00 | 0.44 | 0.44 | 82 | 1016.9 |
| 20260507053507 | 35 | 0 | 0.0 | 2.0 | 0.00 | 0.44 | 0.44 | 81 | 1017.1 |
| 20260507053007 | 35 | 0 | 0.0 | 3.0 | 0.00 | 0.44 | 0.44 | 81 | 1017.2 |
| 20260507052736 | 35 | 0 | 0.0 | 3.0 | 0.00 | 0.44 | 0.44 | 81 | 1017.2 |
| 20260507052006 | 35 | 0 | 1.0 | 3.0 | 0.00 | 0.44 | 0.44 | 81 | 1017.1 |
| 20260507051506 | 35 | 0 | 1.0 | 3.0 | 0.00 | 0.44 | 0.44 | 80 | 1017.2 |
| 20260507051004 | 35 | 0 | 1.0 | 3.0 | 0.00 | 0.45 | 0.44 | 80 | 1017.3 |
| 20260507050503 | 35 | 0 | 1.0 | 3.0 | 0.00 | 0.45 | 0.44 | 80 | 1017.4 |
| 20260507050003 | 36 | 200 | 1.0 | 3.0 | 0.00 | 0.45 | 0.44 | 80 | 1017.5 |
| 20260507045502 | 36 | 202 | 1.0 | 3.0 | 0.00 | 0.45 | 0.44 | 80 | 1017.6 |
| 20260507045001 | 35 | 220 | 1.0 | 3.0 | 0.00 | 0.45 | 0.44 | 80 | 1017.8 |
| 20260507044503 | 35 | 0 | 1.0 | 3.0 | 0.00 | 0.45 | 0.44 | 80 | 1017.9 |
| 20260507044001 | 36 | 213 | 1.0 | 3.0 | 0.00 | 0.45 | 0.44 | 79 | 1017.9 |
| 20260507043459 | 36 | 0 | 0.0 | 3.0 | 0.00 | 0.45 | 0.44 | 79 | 1018.0 |
| 20260507042959 | 36 | 193 | 0.0 | 2.0 | 0.00 | 0.45 | 0.44 | 79 | 1018.1 |
| 20260507042458 | 36 | 0 | 0.0 | 2.0 | 0.00 | 0.45 | 0.44 | 79 | 1018.0 |
| 20260507042000 | 36 | 0 | 0.0 | 2.0 | 0.00 | 0.45 | 0.44 | 79 | 1018.2 |
| 20260507041457 | 36 | 202 | 1.0 | 3.0 | 0.00 | 0.45 | 0.44 | 79 | 1018.3 |
| 20260507040957 | 36 | 163 | 1.0 | 3.0 | 0.00 | 0.45 | 0.44 | 79 | 1018.1 |
| 20260507040458 | 36 | 200 | 0.0 | 2.0 | 0.00 | 0.45 | 0.44 | 79 | 1018.2 |
| 20260507035958 | 36 | 0 | 0.0 | 2.0 | 0.00 | 0.45 | 0.44 | 79 | 1018.1 |
| 20260507035458 | 36 | 0 | 1.0 | 2.0 | 0.00 | 0.45 | 0.44 | 78 | 1018.2 |
| 20260507034957 | 36 | 204 | 1.0 | 2.0 | 0.00 | 0.46 | 0.44 | 78 | 1018.2 |
| 20260507034457 | 36 | 207 | 0.0 | 3.0 | 0.00 | 0.46 | 0.44 | 78 | 1018.2 |
| 20260507033956 | 36 | 198 | 0.0 | 3.0 | 0.00 | 0.46 | 0.44 | 77 | 1018.2 |
| 20260507033456 | 36 | 192 | 0.0 | 2.0 | 0.00 | 0.46 | 0.44 | 77 | 1018.3 |
| 20260507032956 | 37 | 192 | 0.0 | 2.0 | 0.00 | 0.46 | 0.44 | 76 | 1018.2 |
| 20260507032727 | 37 | 196 | 0.0 | 2.0 | 0.00 | 0.46 | 0.44 | 76 | 1018.3 |
| 20260507031955 | 37 | 196 | 0.0 | 2.0 | 0.00 | 0.46 | 0.44 | 75 | 1018.3 |
| 20260507031455 | 37 | 196 | 0.0 | 2.0 | 0.00 | 0.46 | 0.44 | 74 | 1018.4 |
| 20260507031226 | 37 | 196 | 1.0 | 2.0 | 0.00 | 0.46 | 0.44 | 74 | 1018.3 |
| 20260507030727 | 38 | 202 | 0.0 | 2.0 | 0.00 | 0.47 | 0.44 | 74 | 1018.3 |
| 20260507030228 | 38 | 206 | 0.0 | 2.0 | 0.00 | 0.47 | 0.44 | 74 | 1018.3 |
| 20260507025457 | 38 | 209 | 1.0 | 2.0 | 0.00 | 0.47 | 0.44 | 73 | 1018.2 |
| 20260507024955 | 38 | 212 | 1.0 | 2.0 | 0.00 | 0.47 | 0.44 | 72 | 1018.2 |
| 20260507024455 | 38 | 215 | 1.0 | 2.0 | 0.00 | 0.47 | 0.44 | 71 | 1018.3 |
| 20260507023955 | 38 | 217 | 1.0 | 2.0 | 0.00 | 0.48 | 0.44 | 71 | 1018.4 |
| 20260507023457 | 39 | 192 | 1.0 | 3.0 | 0.00 | 0.48 | 0.44 | 70 | 1018.2 |
| 20260507023227 | 39 | 0 | 1.0 | 3.0 | 0.00 | 0.48 | 0.44 | 69 | 1018.3 |
| 20260507022455 | 39 | 201 | 1.0 | 3.0 | 0.00 | 0.48 | 0.44 | 69 | 1018.2 |
| 20260507022225 | 40 | 205 | 1.0 | 3.0 | 0.00 | 0.48 | 0.44 | 68 | 1018.2 |
| 20260507021725 | 40 | 0 | 2.0 | 4.0 | 0.00 | 0.48 | 0.44 | 67 | 1018.2 |
| 20260507020954 | 41 | 0 | 2.0 | 4.0 | 0.00 | 0.49 | 0.44 | 66 | 1018.2 |
| 20260507020453 | 41 | 0 | 2.0 | 4.0 | 0.00 | 0.49 | 0.44 | 66 | 1018.1 |
| 20260507020222 | 42 | 0 | 2.0 | 4.0 | 0.00 | 0.49 | 0.44 | 64 | 1018.1 |
| 20260507015448 | 42 | 0 | 2.0 | 5.0 | 0.00 | 0.49 | 0.44 | 63 | 1018.1 |
| 20260507014948 | 43 | 213 | 1.0 | 5.0 | 0.00 | 0.50 | 0.44 | 61 | 1018.2 |
| 20260507014447 | 44 | 214 | 1.0 | 5.0 | 0.00 | 0.50 | 0.44 | 61 | 1018.2 |
| 20260507013947 | 44 | 213 | 2.0 | 7.0 | 0.00 | 0.50 | 0.44 | 59 | 1018.2 |
| 20260507013447 | 45 | 0 | 3.0 | 7.0 | 0.00 | 0.50 | 0.44 | 58 | 1018.1 |
| 20260507012948 | 46 | 211 | 3.0 | 7.0 | 0.00 | 0.51 | 0.44 | 56 | 1018.2 |
| 20260507012720 | 46 | 215 | 3.0 | 7.0 | 0.00 | 0.51 | 0.44 | 56 | 1018.1 |
| 20260507012221 | 46 | 0 | 4.0 | 8.0 | 0.00 | 0.51 | 0.44 | 56 | 1018.1 |
| 20260507011449 | 46 | 196 | 4.0 | 8.0 | 0.00 | 0.51 | 0.44 | 56 | 1018.1 |
| 20260507010952 | 46 | 0 | 4.0 | 9.0 | 0.00 | 0.51 | 0.44 | 57 | 1018.1 |
| 20260507010947 | 46 | 192 | 4.0 | 8.0 | 0.00 | 0.51 | 0.44 | 56 | 1018.1 |
| 20260507005945 | 47 | 188 | 5.0 | 9.0 | 0.00 | 0.51 | 0.44 | 57 | 1018.1 |
| 20260507005718 | 47 | 213 | 4.0 | 8.0 | 0.00 | 0.51 | 0.44 | 56 | 1018.0 |
| 20260507004947 | 47 | 0 | 4.0 | 8.0 | 0.00 | 0.51 | 0.44 | 55 | 1018.1 |
| 20260507004448 | 46 | 0 | 4.0 | 8.0 | 0.00 | 0.51 | 0.44 | 56 | 1018.0 |
| 20260507003945 | 46 | 0 | 5.0 | 9.0 | 0.00 | 0.51 | 0.44 | 55 | 1018.1 |
| 20260507003718 | 46 | 0 | 5.0 | 10.0 | 0.00 | 0.51 | 0.44 | 55 | 1018.1 |
| 20260507002945 | 47 | 0 | 5.0 | 10.0 | 0.00 | 0.51 | 0.44 | 56 | 1018.1 |
| 20260507002447 | 47 | 165 | 5.0 | 10.0 | 0.00 | 0.51 | 0.44 | 58 | 1018.2 |
| 20260507001944 | 47 | 167 | 5.0 | 9.0 | 0.00 | 0.51 | 0.44 | 56 | 1018.2 |
| 20260507001448 | 47 | 0 | 5.0 | 10.0 | 0.00 | 0.51 | 0.44 | 59 | 1018.2 |
| 20260507001444 | 47 | 208 | 5.0 | 9.0 | 0.00 | 0.51 | 0.44 | 58 | 1018.2 |
| 20260507000443 | 47 | 204 | 6.0 | 11.0 | 0.00 | 0.51 | 0.44 | 57 | 1018.3 |
| 20260507000213 | 47 | 209 | 5.0 | 11.0 | 0.00 | 0.52 | 0.44 | 58 | 1018.4 |
| 20260506235443 | 47 | 172 | 4.0 | 10.0 | 0.00 | 0.52 | 0.44 | 57 | 1018.4 |
| 20260506235211 | 47 | 188 | 4.0 | 10.0 | 0.00 | 0.52 | 0.44 | 58 | 1018.4 |
| 20260506234713 | 46 | 0 | 5.0 | 10.0 | 0.00 | 0.52 | 0.44 | 58 | 1018.4 |
| 20260506233941 | 46 | 0 | 5.0 | 10.0 | 0.00 | 0.52 | 0.44 | 56 | 1018.4 |
| 20260506233442 | 46 | 0 | 5.0 | 11.0 | 0.00 | 0.52 | 0.44 | 56 | 1018.6 |
| 20260506232941 | 46 | 0 | 6.0 | 15.0 | 0.00 | 0.52 | 0.44 | 57 | 1018.6 |
| 20260506232441 | 46 | 161 | 6.0 | 15.0 | 0.00 | 0.52 | 0.44 | 57 | 1018.6 |
| 20260506232214 | 46 | 184 | 6.0 | 11.0 | 0.00 | 0.52 | 0.44 | 60 | 1018.4 |
| 20260506231443 | 46 | 185 | 5.0 | 11.0 | 0.00 | 0.52 | 0.44 | 58 | 1018.6 |
| 20260506230941 | 46 | 196 | 5.0 | 11.0 | 0.00 | 0.52 | 0.44 | 62 | 1018.6 |
| 20260506230443 | 46 | 194 | 5.0 | 11.0 | 0.00 | 0.52 | 0.44 | 58 | 1018.4 |
| 20260506225941 | 46 | 173 | 5.0 | 10.0 | 0.00 | 0.52 | 0.44 | 59 | 1018.4 |
| 20260506225442 | 46 | 0 | 6.0 | 10.0 | 0.00 | 0.52 | 0.44 | 58 | 1018.4 |
| 20260506224939 | 46 | 0 | 6.0 | 12.0 | 0.00 | 0.53 | 0.44 | 59 | 1018.3 |
| 20260506224439 | 46 | 200 | 7.0 | 12.0 | 0.00 | 0.53 | 0.44 | 59 | 1018.4 |
| 20260506223940 | 46 | 0 | 6.0 | 12.0 | 0.00 | 0.53 | 0.44 | 58 | 1018.4 |
| 20260506223711 | 46 | 168 | 5.0 | 12.0 | 0.00 | 0.53 | 0.44 | 62 | 1018.4 |
| 20260506222940 | 46 | 0 | 5.0 | 11.0 | 0.00 | 0.54 | 0.44 | 57 | 1018.4 |
| 20260506222713 | 47 | 0 | 5.0 | 11.0 | 0.00 | 0.54 | 0.44 | 59 | 1018.6 |
| 20260506221937 | 46 | 0 | 6.0 | 13.0 | 0.00 | 0.55 | 0.44 | 61 | 1018.7 |
| 20260506221438 | 46 | 161 | 6.0 | 13.0 | 0.00 | 0.55 | 0.44 | 61 | 1018.6 |
| 20260506220938 | 46 | 167 | 5.0 | 12.0 | 0.00 | 0.55 | 0.44 | 60 | 1018.6 |
| 20260506220437 | 45 | 207 | 4.0 | 8.0 | 0.00 | 0.56 | 0.44 | 64 | 1018.7 |
| 20260506215937 | 44 | 150 | 4.0 | 8.0 | 0.00 | 0.56 | 0.44 | 61 | 1018.8 |
| 20260506215438 | 44 | 190 | 4.0 | 9.0 | 0.00 | 0.57 | 0.44 | 63 | 1018.9 |
| 20260506214936 | 44 | 191 | 5.0 | 9.0 | 0.00 | 0.58 | 0.44 | 63 | 1019.0 |
| 20260506214436 | 44 | 188 | 4.0 | 9.0 | 0.00 | 0.58 | 0.44 | 65 | 1019.1 |
| 20260506213935 | 44 | 166 | 4.0 | 9.0 | 0.00 | 0.58 | 0.44 | 60 | 1019.3 |
| 20260506213435 | 44 | 163 | 5.0 | 10.0 | 0.00 | 0.59 | 0.44 | 60 | 1019.3 |
| 20260506212936 | 45 | 150 | 4.0 | 10.0 | 0.00 | 0.59 | 0.44 | 61 | 1019.4 |
| 20260506212435 | 45 | 0 | 5.0 | 10.0 | 0.00 | 0.60 | 0.44 | 62 | 1019.4 |
| 20260506211935 | 44 | 0 | 5.0 | 10.0 | 0.00 | 0.60 | 0.44 | 67 | 1019.5 |
| 20260506211435 | 44 | 194 | 4.0 | 10.0 | 0.00 | 0.61 | 0.44 | 62 | 1019.5 |
| 20260506210935 | 44 | 186 | 4.0 | 9.0 | 0.00 | 0.61 | 0.44 | 68 | 1019.6 |
| 20260506210436 | 43 | 0 | 4.0 | 9.0 | 0.00 | 0.62 | 0.44 | 66 | 1019.6 |
| 20260506205934 | 42 | 0 | 3.0 | 6.0 | 0.00 | 0.63 | 0.44 | 65 | 1019.6 |
| 20260506205435 | 43 | 0 | 4.0 | 11.0 | 0.00 | 0.63 | 0.44 | 63 | 1019.7 |
| 20260506204933 | 43 | 0 | 6.0 | 11.0 | 0.00 | 0.64 | 0.44 | 63 | 1019.9 |
| 20260506204433 | 43 | 0 | 5.0 | 11.0 | 0.01 | 0.64 | 0.44 | 66 | 1019.9 |
| 20260506203934 | 43 | 182 | 4.0 | 10.0 | 0.01 | 0.65 | 0.44 | 63 | 1019.9 |
| 20260506203433 | 43 | 0 | 3.0 | 10.0 | 0.01 | 0.65 | 0.44 | 69 | 1020.1 |
| 20260506202934 | 42 | 0 | 2.0 | 5.0 | 0.01 | 0.66 | 0.44 | 67 | 1020.2 |
| 20260506202704 | 41 | 207 | 2.0 | 6.0 | 0.01 | 0.66 | 0.44 | 67 | 1020.1 |
| 20260506201933 | 41 | 207 | 2.0 | 6.0 | 0.01 | 0.67 | 0.44 | 67 | 1020.3 |
| 20260506201431 | 41 | 207 | 2.0 | 5.0 | 0.01 | 0.67 | 0.44 | 68 | 1020.3 |
| 20260506200931 | 41 | 0 | 2.0 | 6.0 | 0.01 | 0.67 | 0.44 | 68 | 1020.3 |
| 20260506200432 | 41 | 0 | 1.0 | 6.0 | 0.01 | 0.68 | 0.44 | 71 | 1020.3 |
| 20260506200203 | 41 | 0 | 1.0 | 3.0 | 0.01 | 0.68 | 0.44 | 71 | 1020.4 |
| 20260506195704 | 41 | 0 | 2.0 | 4.0 | 0.01 | 0.68 | 0.44 | 68 | 1020.4 |
| 20260506194931 | 41 | 0 | 2.0 | 5.0 | 0.01 | 0.69 | 0.44 | 68 | 1020.4 |
| 20260506194708 | 42 | 0 | 2.0 | 6.0 | 0.00 | 0.68 | 0.43 | 69 | 1020.4 |
| 20260506194432 | 41 | 0 | 1.0 | 5.0 | 0.00 | 0.68 | 0.43 | 69 | 1020.4 |
| 20260506193429 | 42 | 0 | 2.0 | 6.0 | 0.00 | 0.68 | 0.43 | 69 | 1020.5 |
| 20260506192931 | 42 | 0 | 2.0 | 6.0 | 0.00 | 0.69 | 0.43 | 69 | 1020.5 |
| 20260506192429 | 41 | 0 | 1.0 | 5.0 | 0.00 | 0.69 | 0.43 | 71 | 1020.6 |
| 20260506191931 | 41 | 0 | 0.0 | 2.0 | 0.00 | 0.69 | 0.43 | 68 | 1020.6 |
| 20260506191430 | 42 | 191 | 0.0 | 2.0 | 0.00 | 0.69 | 0.43 | 66 | 1020.5 |
| 20260506191202 | 42 | 191 | 0.0 | 3.0 | 0.01 | 0.69 | 0.43 | 70 | 1020.8 |
| 20260506190429 | 41 | 96 | 0.0 | 3.0 | 0.01 | 0.69 | 0.43 | 69 | 1020.9 |
| 20260506185930 | 41 | 96 | 0.0 | 2.0 | 0.02 | 0.70 | 0.43 | 69 | 1020.9 |
| 20260506185429 | 40 | 97 | 0.0 | 2.0 | 0.02 | 0.70 | 0.43 | 69 | 1020.9 |
| 20260506184929 | 40 | 97 | 1.0 | 3.0 | 0.03 | 0.71 | 0.43 | 68 | 1020.9 |
| 20260506184700 | 40 | 0 | 1.0 | 3.0 | 0.03 | 0.71 | 0.43 | 69 | 1020.9 |
| 20260506183929 | 40 | 97 | 0.0 | 3.0 | 0.04 | 0.72 | 0.43 | 69 | 1021.0 |
| 20260506183427 | 40 | 97 | 1.0 | 6.0 | 0.05 | 0.72 | 0.43 | 69 | 1021.0 |
| 20260506182926 | 40 | 97 | 2.0 | 6.0 | 0.06 | 0.73 | 0.43 | 70 | 1021.0 |
| 20260506182428 | 40 | 97 | 2.0 | 6.0 | 0.08 | 0.73 | 0.43 | 71 | 1021.2 |
| 20260506181926 | 40 | 97 | 2.0 | 5.0 | 0.09 | 0.73 | 0.43 | 74 | 1021.2 |
| 20260506181700 | 39 | 348 | 1.0 | 4.0 | 0.09 | 0.74 | 0.43 | 71 | 1021.2 |
| 20260506180928 | 38 | 338 | 1.0 | 4.0 | 0.09 | 0.73 | 0.42 | 73 | 1021.2 |
| 20260506180427 | 38 | 338 | 2.0 | 5.0 | 0.11 | 0.73 | 0.42 | 74 | 1021.2 |
| 20260506180158 | 38 | 338 | 2.0 | 5.0 | 0.11 | 0.72 | 0.41 | 77 | 1021.2 |
| 20260506175425 | 38 | 336 | 2.0 | 5.0 | 0.12 | 0.73 | 0.41 | 75 | 1021.2 |
| 20260506174925 | 38 | 338 | 1.0 | 4.0 | 0.12 | 0.72 | 0.40 | 74 | 1021.2 |
| 20260506174658 | 38 | 339 | 1.0 | 4.0 | 0.13 | 0.72 | 0.40 | 74 | 1021.2 |
| 20260506174158 | 39 | 339 | 1.0 | 5.0 | 0.13 | 0.71 | 0.39 | 75 | 1021.2 |
| 20260506173430 | 38 | 329 | 1.0 | 5.0 | 0.13 | 0.69 | 0.37 | 78 | 1021.2 |
| 20260506173425 | 39 | 339 | 2.0 | 5.0 | 0.12 | 0.70 | 0.38 | 74 | 1021.2 |
| 20260506172657 | 38 | 0 | 2.0 | 6.0 | 0.12 | 0.67 | 0.36 | 80 | 1021.2 |
| 20260506171925 | 38 | 0 | 2.0 | 6.0 | 0.12 | 0.66 | 0.35 | 79 | 1021.2 |
| 20260506171426 | 38 | 323 | 2.0 | 6.0 | 0.13 | 0.67 | 0.34 | 79 | 1021.2 |
| 20260506170926 | 37 | 323 | 3.0 | 6.0 | 0.12 | 0.65 | 0.33 | 78 | 1021.3 |
| 20260506170424 | 37 | 299 | 4.0 | 7.0 | 0.12 | 0.64 | 0.31 | 80 | 1021.3 |
| 20260506165925 | 37 | 298 | 4.0 | 7.0 | 0.12 | 0.63 | 0.30 | 81 | 1021.3 |
| 20260506165425 | 36 | 306 | 3.0 | 7.0 | 0.12 | 0.62 | 0.29 | 82 | 1021.3 |
| 20260506164924 | 36 | 0 | 3.0 | 7.0 | 0.12 | 0.61 | 0.28 | 82 | 1021.3 |
| 20260506164426 | 36 | 319 | 4.0 | 7.0 | 0.12 | 0.60 | 0.27 | 82 | 1021.2 |
| 20260506163924 | 36 | 0 | 3.0 | 7.0 | 0.12 | 0.60 | 0.27 | 82 | 1021.1 |
| 20260506163424 | 36 | 0 | 3.0 | 6.0 | 0.13 | 0.60 | 0.26 | 84 | 1021.0 |
| 20260506162924 | 36 | 297 | 3.0 | 7.0 | 0.11 | 0.58 | 0.25 | 84 | 1020.9 |
| 20260506162422 | 36 | 297 | 3.0 | 7.0 | 0.11 | 0.57 | 0.23 | 87 | 1020.8 |
| 20260506161923 | 36 | 0 | 3.0 | 7.0 | 0.11 | 0.56 | 0.22 | 87 | 1020.9 |
| 20260506161423 | 35 | 290 | 4.0 | 7.0 | 0.11 | 0.56 | 0.21 | 87 | 1020.9 |
| 20260506161153 | 35 | 292 | 5.0 | 8.0 | 0.10 | 0.55 | 0.20 | 86 | 1020.9 |
| 20260506160421 | 35 | 0 | 5.0 | 8.0 | 0.10 | 0.54 | 0.19 | 87 | 1020.9 |
| 20260506155919 | 35 | 282 | 4.0 | 7.0 | 0.10 | 0.54 | 0.18 | 88 | 1020.8 |
| 20260506155420 | 35 | 0 | 4.0 | 7.0 | 0.09 | 0.53 | 0.17 | 88 | 1020.8 |
| 20260506154921 | 35 | 0 | 3.0 | 7.0 | 0.09 | 0.52 | 0.17 | 89 | 1020.8 |
| 20260506154651 | 35 | 297 | 3.0 | 6.0 | 0.08 | 0.52 | 0.16 | 90 | 1020.8 |
| 20260506153921 | 34 | 0 | 4.0 | 7.0 | 0.07 | 0.52 | 0.15 | 90 | 1020.8 |
| 20260506153420 | 34 | 0 | 4.0 | 7.0 | 0.07 | 0.52 | 0.14 | 91 | 1020.6 |
| 20260506152920 | 34 | 0 | 4.0 | 8.0 | 0.07 | 0.52 | 0.13 | 91 | 1020.5 |
| 20260506152652 | 33 | 292 | 4.0 | 8.0 | 0.06 | 0.52 | 0.12 | 91 | 1020.6 |
| 20260506151919 | 33 | 292 | 4.0 | 7.0 | 0.05 | 0.52 | 0.11 | 92 | 1020.5 |
| 20260506151421 | 33 | 0 | 5.0 | 8.0 | 0.05 | 0.52 | 0.10 | 92 | 1020.5 |
| 20260506151156 | 33 | 339 | 5.0 | 8.0 | 0.04 | 0.52 | 0.09 | 92 | 1020.5 |
| 20260506150919 | 33 | 339 | 5.0 | 8.0 | 0.05 | 0.52 | 0.10 | 92 | 1020.5 |
| 20260506145919 | 32 | 339 | 5.0 | 9.0 | 0.03 | 0.52 | 0.08 | 92 | 1020.4 |
| 20260506145421 | 32 | 339 | 6.0 | 9.0 | 0.03 | 0.52 | 0.08 | 92 | 1020.5 |
| 20260506144921 | 32 | 339 | 5.0 | 9.0 | 0.02 | 0.52 | 0.07 | 93 | 1020.5 |
| 20260506144421 | 32 | 0 | 5.0 | 9.0 | 0.02 | 0.53 | 0.07 | 92 | 1020.4 |
| 20260506144151 | 32 | 346 | 5.0 | 8.0 | 0.03 | 0.54 | 0.07 | 93 | 1020.4 |
| 20260506143421 | 32 | 346 | 4.0 | 8.0 | 0.02 | 0.53 | 0.06 | 93 | 1020.5 |
| 20260506143151 | 32 | 348 | 3.0 | 7.0 | 0.02 | 0.54 | 0.06 | 93 | 1020.4 |
| 20260506142422 | 32 | 0 | 1.0 | 5.0 | 0.02 | 0.55 | 0.06 | 93 | 1020.3 |
| 20260506141921 | 31 | 5 | 1.0 | 5.0 | 0.02 | 0.56 | 0.06 | 93 | 1020.3 |
| 20260506141420 | 31 | 5 | 2.0 | 4.0 | 0.01 | 0.55 | 0.05 | 93 | 1020.2 |
| 20260506140921 | 31 | 5 | 1.0 | 4.0 | 0.01 | 0.55 | 0.05 | 93 | 1020.2 |
| 20260506140650 | 31 | 5 | 0.0 | 2.0 | 0.01 | 0.55 | 0.05 | 93 | 1020.3 |
| 20260506135921 | 31 | 5 | 0.0 | 4.0 | 0.01 | 0.55 | 0.05 | 93 | 1020.3 |
| 20260506135421 | 31 | 5 | 0.0 | 4.0 | 0.01 | 0.55 | 0.05 | 93 | 1020.3 |
| 20260506135152 | 31 | 5 | 0.0 | 0.0 | 0.01 | 0.55 | 0.05 | 93 | 1020.2 |
| 20260506134419 | 31 | 5 | 0.0 | 4.0 | 0.01 | 0.55 | 0.05 | 93 | 1020.1 |
| 20260506133922 | 31 | 5 | 0.0 | 4.0 | 0.00 | 0.54 | 0.04 | 93 | 1020.1 |
| 20260506133419 | 31 | 5 | 0.0 | 5.0 | 0.00 | 0.54 | 0.04 | 93 | 1020.1 |
| 20260506132922 | 31 | 5 | 1.0 | 5.0 | 0.00 | 0.55 | 0.04 | 93 | 1019.9 |
| 20260506132651 | 31 | 5 | 1.0 | 4.0 | 0.00 | 0.55 | 0.04 | 93 | 1019.9 |
| 20260506132152 | 31 | 5 | 0.0 | 0.0 | 0.00 | 0.55 | 0.04 | 93 | 1019.7 |
| 20260506131419 | 31 | 5 | 0.0 | 0.0 | 0.00 | 0.55 | 0.04 | 93 | 1019.6 |
| 20260506130920 | 31 | 5 | 0.0 | 0.0 | 0.00 | 0.56 | 0.04 | 93 | 1019.6 |
| 20260506130420 | 31 | 5 | 0.0 | 0.0 | 0.00 | 0.56 | 0.04 | 93 | 1019.5 |
| 20260506125920 | 31 | 5 | 0.0 | 2.0 | 0.00 | 0.56 | 0.04 | 93 | 1019.5 |
| 20260506125419 | 31 | 5 | 0.0 | 3.0 | 0.00 | 0.57 | 0.04 | 93 | 1019.4 |
| 20260506125152 | 31 | 5 | 0.0 | 3.0 | 0.00 | 0.57 | 0.04 | 93 | 1019.4 |